Weather History for Grand Island, NE

Change the Weather History Date:

Wednesday, July 24, 2013

  Actual Average Record
Temperature  
Mean Temperature 74 °F 76 °F  
Max Temperature 87 °F 87 °F 117 °F (1936)
Min Temperature 60 °F 65 °F 52 °F (1896)
Degree Days  
Heating Degree Days 0 0  
Month to date heating degree days 0 0  
Since 1 June heating degree days 21 24  
Since 1 July heating degree days 0 0  
Cooling Degree Days 9 11  
Month to date cooling degree days 332 273  
Year to date cooling degree days 686 551  
Since 1 June cooling degree days 591 486  
Growing Degree Days 24 (Base 50)    
Moisture  
Dew Point 63 °F    
Average Humidity 74    
Maximum Humidity 100    
Minimum Humidity 47    
Precipitation  
Precipitation 0.00 in 0.10 in 1.66 in (2009)
Month to date precipitation 0.74 2.67  
Year to date precipitation 15.74 16.92  
Snow  
Snow 0.00 in 0.00 in - ()
Month to date snowfall 0.0 0.0  
Since 1 June snowfall 0.0 0.0  
Since 1 July snowfall 0.0 0.0  
Snow Depth 0.00 in    
Sea Level Pressure  
Sea Level Pressure 30.05 in    
Wind  
Wind Speed 4 mph (East)    
Max Wind Speed 10 mph    
Max Gust Speed 13 mph    
Visibility 9 miles    
Events      
T = Trace of Precipitation, MM = Missing Value Source: NWS Daily Summary

Daily Weather History Graph

Daily Weather History Graph

Search for Another Location

Airport:

Trip Planner

Search our weather history database for the weather conditions in past years. The results will help you decide how hot, cold, wet, or windy it might be!

Date:

Astronomy

Jul. 24, 2013 Rise Set
Actual Time 6:22 AM CDT 8:56 PM CDT
Civil Twilight 5:50 AM CDT 9:28 PM CDT
Nautical Twilight 5:10 AM CDT 10:07 PM CDT
Astronomical Twilight 4:26 AM CDT 10:52 PM CDT
Moon 10:01 PM CDT (7/24) 8:45 AM CDT (7/24)
Length of Visible Light 15h 38m
Length of Day
14h 34m
Waning Gibbous, 94% of the Moon is Illuminated
Jul 24
Waning Gibbous
Jul 29
Last Quarter
Aug 6
New
Aug 14
First Quarter
Aug 20
Full

Hourly Weather History & Observations

Time (CDT) Temp. Heat Index Dew Point Humidity Pressure Visibility Wind Dir Wind Speed Gust Speed Precip Events Conditions
12:53 AM 66.0 °F - 64.0 °F 93% 30.03 in 8.0 mi ENE 5.8 mph - N/A   Clear
1:53 AM 64.9 °F - 63.0 °F 93% 30.05 in 6.0 mi Calm Calm - N/A   Clear
2:53 AM 63.0 °F - 61.0 °F 93% 30.04 in 5.0 mi Calm Calm - N/A   Clear
3:53 AM 62.1 °F - 60.1 °F 93% 30.04 in 6.0 mi Calm Calm - N/A   Clear
4:53 AM 61.0 °F - 60.1 °F 97% 30.04 in 7.0 mi WNW 3.5 mph - N/A   Clear
5:53 AM 61.0 °F - 59.0 °F 93% 30.07 in 8.0 mi North 3.5 mph - N/A   Clear
6:53 AM 60.1 °F - 59.0 °F 96% 30.08 in 6.0 mi North 3.5 mph - N/A   Clear
7:53 AM 64.0 °F - 61.0 °F 90% 30.10 in 10.0 mi NNE 3.5 mph - N/A   Clear
8:19 AM 64.4 °F - 60.8 °F 88% 30.12 in 10.0 mi NE 3.5 mph - N/A   Clear
8:53 AM 66.9 °F - 61.0 °F 81% 30.10 in 10.0 mi East 3.5 mph - N/A   Clear
9:53 AM 72.0 °F - 63.0 °F 73% 30.10 in 10.0 mi Calm Calm - N/A   Clear
10:53 AM 77.0 °F - 63.0 °F 62% 30.09 in 10.0 mi Variable 3.5 mph - N/A   Clear
11:53 AM 79.0 °F - 62.1 °F 56% 30.09 in 10.0 mi NW 4.6 mph - N/A   Clear
12:53 PM 80.1 °F 81.1 °F 61.0 °F 52% 30.09 in 10.0 mi Calm Calm - N/A   Clear
1:53 PM 82.9 °F 83.3 °F 61.0 °F 47% 30.06 in 10.0 mi Variable 4.6 mph - N/A   Clear
2:53 PM 82.9 °F 83.3 °F 61.0 °F 47% 30.06 in 10.0 mi Calm Calm - N/A   Clear
3:53 PM 84.9 °F 85.4 °F 62.1 °F 46% 30.03 in 10.0 mi Calm Calm - N/A   Clear
4:53 PM 84.9 °F 85.9 °F 63.0 °F 48% 30.01 in 10.0 mi SE 4.6 mph - N/A   Partly Cloudy
5:53 PM 82.9 °F 84.4 °F 64.0 °F 53% 30.00 in 10.0 mi ESE 8.1 mph - N/A   Clear
6:53 PM 82.0 °F 84.1 °F 66.0 °F 58% 30.00 in 10.0 mi SE 8.1 mph - N/A   Clear
7:53 PM 78.1 °F - 66.9 °F 68% 30.00 in 10.0 mi SSE 6.9 mph - N/A   Mostly Cloudy
8:53 PM 75.9 °F - 66.9 °F 74% 30.00 in 10.0 mi ENE 5.8 mph - N/A   Clear
9:53 PM 73.9 °F - 66.9 °F 79% 30.01 in 10.0 mi South 5.8 mph - N/A   Clear
10:53 PM 73.9 °F - 66.9 °F 79% 30.02 in 10.0 mi South 6.9 mph - N/A   Clear
11:53 PM 73.9 °F - 64.0 °F 71% 30.01 in 10.0 mi SSE 8.1 mph - N/A   Clear